TimeEST,TemperatureF,Dew PointF,Humidity,Sea Level PressureIn,VisibilityMPH,Wind Direction,Wind SpeedMPH,Gust SpeedMPH,PrecipitationIn,Events,Conditions,WindDirDegrees,DateUTC
12:21 AM,3.2,-2.2,78,29.80,1.2,WSW,26.5,34.5,0.00,Snow,Light Snow,250,2014-01-07 05:21:00
12:54 AM,3.0,-2.9,76,29.87,1.2,WSW,24.2,41.4,0.00,Snow,Light Snow,240,2014-01-07 05:54:00
1:19 AM,1.4,-2.2,85,29.84,0.8,WSW,27.6,32.2,0.00,Snow,Light Snow,240,2014-01-07 06:19:00
1:54 AM,1.9,-4.0,76,29.89,1.0,WSW,25.3,33.4,0.00,Snow,Light Snow,240,2014-01-07 06:54:00
2:54 AM,-0.0,-6.0,76,29.94,1.0,WSW,27.6,44.9,0.00,Snow,Light Snow,240,2014-01-07 07:54:00
3:54 AM,-0.9,-8.0,72,29.95,1.0,WSW,29.9,39.1,0.00,Snow,Light Snow,250,2014-01-07 08:54:00
4:54 AM,-2.0,-9.0,72,29.99,1.5,WSW,25.3,35.7,0.00,Snow,Light Snow,250,2014-01-07 09:54:00
5:54 AM,-2.9,-9.0,75,30.01,1.8,WSW,16.1,29.9,0.00,Snow,Light Snow,240,2014-01-07 10:54:00
6:34 AM,-2.2,-9.4,71,29.97,1.5,WSW,21.9,28.8,0.00,Snow,Light Snow,240,2014-01-07 11:34:00
6:54 AM,-2.9,-9.0,75,30.03,1.5,WSW,21.9,-,0.00,Snow,Light Snow,240,2014-01-07 11:54:00
7:49 AM,-2.2,-7.6,78,29.99,0.8,WSW,20.7,31.1,0.00,Snow,Light Snow,240,2014-01-07 12:49:00
7:54 AM,-2.0,-8.0,76,30.05,0.8,WSW,19.6,33.4,0.00,Snow,Light Snow,240,2014-01-07 12:54:00
8:49 AM,-2.2,-7.6,78,30.03,0.8,WSW,23.0,32.2,0.00,Snow,Light Snow,250,2014-01-07 13:49:00
8:54 AM,-2.0,-8.0,76,30.09,0.8,WSW,21.9,32.2,0.00,Snow,Light Snow,250,2014-01-07 13:54:00
9:34 AM,-2.2,-7.6,78,30.04,0.5,WSW,20.7,29.9,0.00,Snow,Light Snow,240,2014-01-07 14:34:00
9:54 AM,-0.9,-8.0,72,30.11,0.8,WSW,19.6,27.6,0.00,Snow,Light Snow,250,2014-01-07 14:54:00
10:28 AM,-0.4,-9.4,66,30.06,1.0,WSW,27.6,35.7,0.00,Snow,Light Snow,240,2014-01-07 15:28:00
10:54 AM,-0.9,-7.1,75,30.12,1.0,WSW,19.6,31.1,0.00,Snow,Light Snow,240,2014-01-07 15:54:00
11:39 AM,-0.4,-7.6,72,30.05,0.8,WSW,27.6,36.8,0.00,Snow,Light Snow,240,2014-01-07 16:39:00
11:54 AM,-0.0,-7.1,72,30.09,0.8,WSW,24.2,35.7,0.00,Snow,Light Snow,250,2014-01-07 16:54:00
12:31 PM,1.4,-5.8,72,30.04,0.5,WSW,21.9,34.5,0.00,Snow,Light Snow,250,2014-01-07 17:31:00
12:54 PM,1.9,-4.0,76,30.09,0.5,WSW,23.0,29.9,0.00,Snow,Light Snow,250,2014-01-07 17:54:00
1:46 PM,3.2,-2.2,78,30.04,0.5,WSW,25.3,33.4,0.00,Snow,Light Snow,250,2014-01-07 18:46:00
1:54 PM,3.9,-2.9,73,30.10,0.5,WSW,26.5,35.7,0.00,Snow,Light Snow,250,2014-01-07 18:54:00
2:54 PM,3.9,-2.9,73,30.12,0.8,WSW,24.2,35.7,0.00,Snow,Light Snow,240,2014-01-07 19:54:00
3:54 PM,3.9,-2.0,76,30.13,0.2,WSW,28.8,41.4,0.00,Snow,Light Snow,240,2014-01-07 20:54:00
4:20 PM,3.2,-2.2,78,30.08,0.8,WSW,23.0,38.0,0.00,Snow,Light Snow,240,2014-01-07 21:20:00
4:24 PM,3.2,-2.2,78,30.08,2.0,WSW,26.5,39.1,0.00,Snow,Light Snow,240,2014-01-07 21:24:00
4:30 PM,3.2,-2.2,78,30.08,3.0,WSW,23.0,39.1,0.00,Snow,Light Snow,250,2014-01-07 21:30:00
4:38 PM,5.0,-2.2,72,30.08,4.0,WSW,24.2,34.5,0.00,Snow,Blowing Snow,240,2014-01-07 21:38:00
4:54 PM,5.0,-4.0,66,30.14,5.0,WSW,21.9,39.1,0.00,Snow,Blowing Snow,250,2014-01-07 21:54:00
5:54 PM,5.0,-4.0,66,30.17,10.0,WSW,21.9,31.1,N/A,,Mostly Cloudy,240,2014-01-07 22:54:00
6:05 PM,5.0,-4.0,66,30.11,9.0,WSW,21.9,32.2,N/A,,Mostly Cloudy,240,2014-01-07 23:05:00
6:30 PM,3.2,-5.8,66,30.13,10.0,WSW,21.9,27.6,N/A,,Scattered Clouds,240,2014-01-07 23:30:00
6:54 PM,3.9,-6.0,64,30.19,10.0,WSW,21.9,25.3,N/A,,Mostly Cloudy,240,2014-01-07 23:54:00
7:54 PM,3.9,-2.9,73,30.23,9.0,WSW,16.1,-,N/A,,Mostly Cloudy,250,2014-01-08 00:54:00
8:14 PM,5.0,-2.2,72,30.18,10.0,WSW,16.1,-,N/A,,Overcast,250,2014-01-08 01:14:00
8:54 PM,5.0,-2.9,70,30.25,5.0,WSW,19.6,31.1,0.00,Snow,Blowing Snow,240,2014-01-08 01:54:00
9:54 PM,3.9,-2.9,73,30.26,5.0,WSW,19.6,-,0.00,Snow,Blowing Snow,240,2014-01-08 02:54:00
10:54 PM,5.0,-2.0,73,30.28,3.0,WSW,15.0,25.3,N/A,Snow,Blowing Snow,240,2014-01-08 03:54:00
11:39 PM,3.2,-2.2,78,30.24,10.0,WSW,13.8,-,N/A,,Scattered Clouds,250,2014-01-08 04:39:00
11:54 PM,3.9,-2.9,73,30.30,10.0,WSW,16.1,-,N/A,,Scattered Clouds,250,2014-01-08 04:54:00